Weather History for Faleolo, Samoa

Change the Weather History Date:

Wednesday, February 13, 2013

  Actual Average Record
Temperature  
Mean Temperature 83 °F -  
Max Temperature 89 °F 85 °F 89 °F (2001)
Min Temperature 77 °F 74 °F 73 °F (2009)
Cooling Degree Days 18    
Growing Degree Days 33 (Base 50)    
Moisture  
Dew Point 76 °F    
Average Humidity 77    
Maximum Humidity 100    
Minimum Humidity 54    
Precipitation  
Precipitation 0.04 in - - ()
Sea Level Pressure  
Sea Level Pressure 29.86 in    
Wind  
Wind Speed 10 mph ()    
Max Wind Speed 34 mph    
Max Gust Speed -    
Visibility 13.7 miles    
Events Rain    
Averages and records for this station are not official NWS values.
T = Trace of Precipitation, MM = Missing Value Source: Averaged Metar Reports

Daily Weather History Graph

Daily Weather History Graph

Search for Another Location

Airport:

Trip Planner

Search our weather history database for the weather conditions in past years. The results will help you decide how hot, cold, wet, or windy it might be!

Date:

Astronomy

Feb. 14, 2013 Rise Set
Actual Time 7:25 AM WSDT 7:58 PM WSDT
Civil Twilight 7:03 AM WSDT 8:20 PM WSDT
Nautical Twilight 6:37 AM WSDT 8:46 PM WSDT
Astronomical Twilight 6:11 AM WSDT 9:12 PM WSDT
Moon 9:39 AM WSDT (2/13) 9:54 PM WSDT (2/13)
Length of Visible Light 13h 17m
Length of Day
12h 33m
Waxing Crescent, 8% of the Moon is Illuminated
Feb 13
Waxing Crescent
Feb 18
First Quarter
Feb 26
Full
Mar 5
Last Quarter
Mar 12
New

Hourly Weather History & Observations

Time (WSDT) Temp. Heat Index Dew Point Humidity Pressure Visibility Wind Dir Wind Speed Gust Speed Precip Events Conditions
12:00 AM 80.6 °F 87.1 °F 77.0 °F 89% 29.89 in 6.2 mi NE 16.1 mph - N/A Rain Rain
1:00 AM 78.8 °F - 77.0 °F 94% 29.89 in 12.4 mi ENE 6.9 mph - N/A   Light Drizzle
2:00 AM 80 °F - 77 °F 88% 29.88 in 12 mi ENE 15.0 mph - -   Mostly Cloudy
2:00 AM 78.8 °F - 77.0 °F 94% 29.86 in 15.5 mi ENE 15.0 mph - N/A   Mostly Cloudy
3:00 AM 78.8 °F - 77.0 °F 94% 29.86 in 12.4 mi East 9.2 mph - N/A   Drizzle
4:00 AM 80.6 °F 86.2 °F 75.2 °F 84% 29.83 in 15.5 mi NE 13.8 mph - N/A   Scattered Clouds
5:00 AM 81 °F - 75 °F 76% 29.85 in 12 mi NNE 6.9 mph - -   Partly Cloudy
5:00 AM 80.6 °F 86.2 °F 75.2 °F 84% 29.83 in 18.6 mi NNE 6.9 mph - N/A   Scattered Clouds
8:00 AM 77 °F - 76 °F 96% 29.86 in 12 mi Calm Calm - -   Scattered Clouds
8:00 AM 77.0 °F - 77.0 °F 100% 29.86 in 28.0 mi Calm Calm - N/A   Mostly Cloudy
9:00 AM 82.4 °F 90.9 °F 77.0 °F 84% 29.86 in 28.0 mi Variable 34.5 mph - N/A   Mostly Cloudy
10:00 AM 84.2 °F 92.3 °F 75.2 °F 74% 29.89 in 28.0 mi East 9.2 mph - N/A   Scattered Clouds
11:00 AM 85 °F - - %  in 12 mi ENE 10.4 mph - -  
11:00 AM 86.0 °F 93.4 °F 73.4 °F 66% 29.89 in - ENE 10.4 mph - N/A   Partly Cloudy
12:00 PM 86.0 °F 95.1 °F 75.2 °F 70% 29.89 in 28.0 mi NE 12.7 mph - N/A   Partly Cloudy
1:00 PM 87.8 °F 97.6 °F 75.2 °F 66% 29.86 in 28.0 mi ENE 13.8 mph - N/A   Partly Cloudy
2:00 PM 89 °F - 75 °F 54% 29.86 in 12 mi ENE 15.0 mph - -   Haze
2:00 PM 87.8 °F 97.6 °F 75.2 °F 66% 29.86 in 28.0 mi ENE 15.0 mph - N/A   Partly Cloudy
3:00 PM 87.8 °F 95.6 °F 73.4 °F 62% 29.83 in 31.1 mi ENE 13.8 mph - N/A   Partly Cloudy
4:00 PM 87.8 °F 97.6 °F 75.2 °F 66% 29.83 in 31.1 mi North - - N/A   Partly Cloudy
5:00 PM 87 °F - 74 °F 59% 29.83 in 12 mi ENE 16.1 mph - -   Haze
5:00 PM 87.8 °F 97.6 °F 75.2 °F 66% 29.80 in 28.0 mi ENE 16.1 mph - N/A   Scattered Clouds
6:00 PM 86.0 °F 93.4 °F 73.4 °F 66% 29.80 in 28.0 mi East 11.5 mph - N/A   Partly Cloudy
7:00 PM 87.8 °F 97.6 °F 75.2 °F 66% 29.83 in 28.0 mi ENE 15.0 mph - N/A   Partly Cloudy
8:00 PM 84 °F - 75 °F 68% 29.85 in 12 mi Calm Calm - -   Haze
8:00 PM 84.2 °F 92.3 °F 75.2 °F 74% 29.83 in 28.0 mi Calm Calm - N/A   Scattered Clouds
9:00 PM 82.4 °F 89.5 °F 75.2 °F 79% 29.86 in 18.6 mi ESE 2.3 mph - N/A   Scattered Clouds
10:00 PM 80.6 °F 86.2 °F 75.2 °F 84% 29.86 in 18.6 mi Calm Calm - N/A   Scattered Clouds
11:00 PM 80 °F - 76 °F 84% 29.89 in 12 mi SSE 3.5 mph - -   Partly Cloudy
11:00 PM 80.6 °F 87.1 °F 77.0 °F 89% 29.89 in 18.6 mi SSE 3.5 mph - N/A   Scattered Clouds